Regional Weather Roundup
Issued by NWS

Home | Current Version | Previous Version | Text Only | Print | Product List | Glossary On
Versions: 1 2 3 4 5 6 7 8 9 10 11 12 13 14 15 16 17 18 19 20 21 22 23 24 25 26 27 28 29 30 31 32 33 34 35 36 37 38 39 40 41 42 43 44 45 46 47 48 49 50
000
ASUS44 KOUN 260110
RWROK

WEATHER ROUNDUP FOR OKLAHOMA
NATIONAL WEATHER SERVICE NORMAN OK
700 PM CST SUN JAN 25 2015

NOTE: "FAIR" INDICATES FEW OR NO CLOUDS BELOW 12,000 FEET WITH NO
      SIGNIFICANT WEATHER AND/OR OBSTRUCTIONS TO VISIBILITY.

OKZ001>007-009>012-014-015-017-260200-
NORTHWEST OKLAHOMA AND THE PANHANDLE

CITY           SKY/WX    TMP DP  RH WIND       PRES   REMARKS
GAGE           CLEAR     45  18  34 N6        30.13R
ENID/WOODRING  PTCLDY    43  27  52 N8        30.11R
$$

OKZ016-021>023-033>039-044-045-260200-
SOUTHWEST OKLAHOMA

CITY           SKY/WX    TMP DP  RH WIND       PRES   REMARKS
LAWTON/REGL    CLEAR     47  22  37 NW5       30.13R
LAWTON/FT SILL CLEAR     52  22  31 N8        30.12R
FREDERICK      CLEAR     49  25  39 NW8       30.11R
CLINTON        CLEAR     49  24  37 N10       30.14R
HOBART         CLEAR     44  26  49 N9        30.13R
ALTUS AFB      CLEAR     51  25  36 W6        30.15R
$$

OKZ018>020-024>031-260200-
CENTRAL OKLAHOMA

CITY           SKY/WX    TMP DP  RH WIND       PRES   REMARKS
OKLAHOMA CITY  PTCLDY    50  26  39 N12       30.10R
OKC/WILEY POST CLEAR     47  27  45 N12       30.11R
OKC/TINKER AFB CLEAR     47  27  46 N10       30.10R
STILLWATER     CLEAR     41  27  57 N8        30.11R
GUTHRIE        CLEAR     47  27  45 N3        30.11R
$$

OKZ008-013-054>072-260200-
NORTHEAST OKLAHOMA

CITY           SKY/WX    TMP DP  RH WIND       PRES   REMARKS
TULSA          MOCLDY    47  32  56 NW10      30.08R
TULSA/JONES    CLEAR     48  31  51 N7G17     30.09R
PONCA CITY     CLEAR     40  28  62 N8        30.12R WCI  34
BARTLESVILLE   CLEAR     42  31  64 N9        30.12R
MUSKOGEE       CLOUDY    49  31  49 N16       30.08R
$$

OKZ032-040>043-046>053-073>077-260200-
SOUTH CENTRAL/SOUTHEAST OKLAHOMA

CITY           SKY/WX    TMP DP  RH WIND       PRES   REMARKS
ARDMORE/DWNTWN CLEAR     54  25  32 N6        30.10R
MCALESTER      PTCLDY    49  31  49 N9        30.08R
$$



USA.gov is the U.S. government's official web portal to all federal, state and local government web resources and services.